Regional Weather Roundup
Issued by NWS Midland/Odessa, TX

Skip options and go directly to product.
Home | Oldest Version | Previous Version | Current Version | All | Text Only | Save Text | Print | Product List | Glossary Off

Skip product version selection by date and time.   

433
ASUS44 KMAF 250310
RWRMAF
MIDLAND AREA WEATHER ROUNDUP
NATIONAL WEATHER SERVICE MIDLAND TX
1000 PM CDT FRI JUN 24 2016

...IN SOUTHWEST TEXAS AND SOUTHEAST NEW MEXICO...

CITY           SKY/WX    TMP DP  RH WIND       PRES   REMARKS
ALPINE         CLEAR     79  55  42 SE12G17   30.11R
ANDREWS        FAIR      83  55  37 SE8       30.00R
ARTESIA        CLEAR     88  52  29 SE16      29.95R
BIG SPRING     CLEAR     78  57  47 E7        30.00R
CARLSBAD       CLEAR     87  50  27 SE12      29.94R
DRYDEN           N/A     85  63  47 E20G26    29.93R
FORT STOCKTON  CLEAR     83  61  47 SE14G23   29.98R
GUAD PASS      CLEAR     80  46  30 E28         N/A
HOBBS          CLEAR     82  52  34 SE9       30.03R
MARFA          CLEAR    N/A N/A N/A E7        30.10R
MIDLAND AIRPK  CLEAR     86  52  30 S10       30.00R
MIDLAND INTL   CLEAR     85  53  33 SE12      29.99R
ODESSA         CLEAR     86  50  28 S12       30.00R
PECOS          CLEAR     87  56  34 E18       29.93R
PRESIDIO       FAIR      91  47  21 NE12      29.89R
SEMINOLE       CLEAR     82  52  34 SE8       30.02R
SNYDER           N/A     81  63  54 SE9       29.99R
WINK           CLEAR     85  51  31 SE15      29.94R
$$
...OTHER STATIONS IN TEXAS...

CITY           SKY/WX    TMP DP  RH WIND       PRES   REMARKS
ABILENE        PTCLDY    82  64  54 SE13      29.98R
AMARILLO       CLEAR     80  58  46 SE17      30.00R
AUSTIN         CLOUDY    83  74  74 SE7       29.98R
BROWNSVILLE    PTCLDY    82  76  81 SE13      29.97R
CORPUS CHRISTI PTCLDY    82  76  81 SE9       29.97R
DALLAS FTW     PTCLDY    86  67  52 SE12      29.96R
DEL RIO        MOCLDY    89  61  38 E12       29.89R
EL PASO        MOCLDY    84  54  35 W28G39    29.95R SQUALL  THUNDER
HOUSTON INT    PTCLDY    81  74  79 S6        30.01R
LUBBOCK        PTCLDY    82  56  40 SE9       30.01R
SAN ANGELO     CLEAR     82  60  47 S8        29.97R
SAN ANTONIO    PTCLDY    82  70  66 SE14      29.98R
WACO           CLEAR     84  68  58 SE9       29.98R
WICHITA FALLS  NOT AVBL
$$
...OTHER LOCATIONS IN NEW MEXICO...

CITY           SKY/WX    TMP DP  RH WIND       PRES   REMARKS
ALAMAGORDO     CLOUDY    82  50  32 SE13      30.03R THUNDER
ALBUQUERQUE    CLOUDY    84  45  25 CALM      30.08R
CANNON AFB     PTCLDY    81  52  36 S14       30.02R
CLOVIS         CLEAR     81  52  36 S13       30.02R
HOLLOMAN AFB   CLOUDY    84  48  28 SE13G30   29.99R
ROSWELL        CLEAR     86  47  25 S9        29.95R
RUIDOSO          N/A     68  48  49 SE6       30.23R
SANTA FE       CLOUDY    78  44  29 S12       30.14R
TRUTH OR CONSE CLOUDY    83  48  29 NW25G36   30.05R
TUCUMCARI      CLEAR     82  52  35 SW8       29.96R
$$

USA.gov is the U.S. government's official web portal to all federal, state and local government web resources and services.